GW3866 Weather Reports


Display with metric or nautical units.
time (UTC)temp
F
wind
direction
speed
MPH
gust
MPH
rain 1hr
in
rain 24hr
in
rain mn
in
humidity
%
barometer
mb
20260503190541 65 262 11.0 14.0 0.00 0.00 0.00 72 1014.9
20260503190049 65 257 10.0 14.0 0.00 0.00 0.00 72 1015.0
20260503185540 64 260 11.0 15.0 0.00 0.00 0.00 71 1015.0
20260503185040 64 257 11.0 15.0 0.00 0.00 0.00 73 1015.0
20260503184544 63 240 12.0 15.0 0.00 0.00 0.00 72 1015.1
20260503184040 63 254 12.0 15.0 0.00 0.00 0.00 73 1015.1
20260503183540 63 261 13.0 15.0 0.00 0.00 0.00 71 1015.1
20260503183047 63 252 13.0 16.0 0.00 0.00 0.00 72 1015.1
20260503182541 63 245 13.0 17.0 0.00 0.00 0.00 73 1015.1
20260503182039 62 251 13.0 17.0 0.00 0.00 0.00 75 1015.1
20260503181556 62 254 13.0 15.0 0.00 0.00 0.00 75 1015.1
20260503181040 62 249 13.0 15.0 0.00 0.00 0.00 74 1015.1
20260503180540 62 249 13.0 15.0 0.00 0.00 0.00 76 1015.1
20260503180049 61 257 13.0 15.0 0.00 0.00 0.00 76 1015.2
20260503175540 61 251 14.0 16.0 0.00 0.00 0.00 77 1015.3
20260503175040 61 256 14.0 16.0 0.00 0.00 0.00 78 1015.3
20260503174551 60 258 14.0 17.0 0.00 0.00 0.00 78 1015.2
20260503174040 60 255 15.0 17.0 0.00 0.00 0.00 79 1015.3
20260503173538 60 253 15.0 18.0 0.00 0.00 0.00 79 1015.2
20260503173054 59 258 15.0 19.0 0.00 0.00 0.00 81 1015.2
20260503172541 59 254 16.0 19.0 0.00 0.00 0.00 80 1015.2
20260503172040 59 252 17.0 19.0 0.00 0.00 0.00 81 1015.3
20260503171547 59 254 17.0 19.0 0.00 0.00 0.00 81 1015.3
20260503171039 60 252 14.0 17.0 0.00 0.00 0.00 80 1015.4
20260503170540 60 253 11.0 13.0 0.00 0.00 0.00 80 1015.4
20260503150539 59 247 10.0 13.0 0.00 0.00 0.00 77 1016.0
20260503131044 57 231 5.0 16.0 0.00 0.00 0.00 73 1015.5
20260503130542 57 231 9.0 16.0 0.00 0.00 0.00 75 1015.5
20260503110540 54 0 0.0 3.0 0.00 0.00 0.00 82 1015.4
20260503081550 56 259 1.0 4.0 0.00 0.00 0.00 81 1015.4
20260503081036 56 259 2.0 4.0 0.00 0.00 0.00 82 1015.5
20260503080539 56 259 2.0 3.0 0.00 0.00 0.00 82 1015.4
20260503072537 58 0 0.0 0.0 0.00 0.00 0.00 83 1015.2
20260503072037 58 0 0.0 1.0 0.00 0.00 0.00 82 1015.1
20260503071555 58 0 0.0 2.0 0.00 0.00 0.00 81 1015.1
20260503071036 58 0 0.0 2.0 0.00 0.00 0.00 80 1015.0
20260503070536 59 0 0.0 4.0 0.00 0.00 0.00 80 1015.0
20260503055036 62 256 3.0 12.0 0.00 0.00 0.00 76 1014.6
20260503054549 62 239 6.0 12.0 0.00 0.00 0.00 76 1014.5
20260503054037 62 229 6.0 12.0 0.00 0.00 0.00 76 1014.5
20260503053536 61 278 3.0 8.0 0.00 0.00 0.00 76 1014.5
20260503053047 61 195 1.0 5.0 0.00 0.00 0.00 75 1014.5
20260503052537 61 229 2.0 5.0 0.00 0.00 0.00 76 1014.5
20260503052040 61 0 0.0 2.0 0.00 0.00 0.00 76 1014.5
20260503051550 61 255 0.0 2.0 0.00 0.00 0.00 76 1014.5
20260503051036 61 254 0.0 2.0 0.00 0.00 0.00 75 1014.5
20260503050538 62 0 0.0 1.0 0.00 0.00 0.00 75 1014.5
20260503050047 62 0 0.0 2.0 0.00 0.00 0.00 74 1014.5
20260503045539 62 251 0.0 3.0 0.00 0.00 0.00 73 1014.3
20260503045039 62 0 1.0 5.0 0.00 0.00 0.00 74 1014.4
20260503044545 62 250 2.0 8.0 0.00 0.00 0.00 74 1014.3
20260503044037 63 251 4.0 9.0 0.00 0.00 0.00 76 1014.3
20260503043537 63 250 4.0 11.0 0.00 0.00 0.00 74 1014.3
20260503043055 64 247 6.0 11.0 0.00 0.00 0.00 73 1014.3
20260503042537 64 236 10.0 11.0 0.00 0.00 0.00 71 1014.3
20260503042037 64 243 6.0 10.0 0.00 0.00 0.00 70 1014.2
20260503041622 64 252 4.0 13.0 0.00 0.00 0.00 68 1014.1
20260503041038 64 224 5.0 13.0 0.00 0.00 0.00 69 1014.1
20260503040537 64 243 11.0 13.0 0.00 0.00 0.00 68 1014.1
20260503040049 65 245 11.0 14.0 0.00 0.00 0.00 68 1014.1
20260503035536 65 244 12.0 14.0 0.00 0.00 0.00 66 1014.0
20260503035036 65 236 9.0 14.0 0.00 0.00 0.00 65 1014.0
20260503034550 66 241 12.0 14.0 0.00 0.00 0.00 65 1013.9
20260503034038 67 253 8.0 14.0 0.00 0.00 0.00 62 1013.8
20260503033543 68 245 8.0 16.0 0.00 0.00 0.00 59 1013.7
20260503033103 68 230 11.0 16.0 0.00 0.00 0.00 58 1013.7
20260503032536 68 222 11.0 18.0 0.00 0.00 0.00 57 1013.7
20260503032040 68 212 10.0 22.0 0.00 0.00 0.00 56 1013.6
20260503031548 69 214 13.0 22.0 0.00 0.00 0.00 55 1013.7
20260503031037 69 233 14.0 24.0 0.00 0.00 0.00 54 1013.6
20260503030536 69 243 15.0 24.0 0.00 0.00 0.00 53 1013.6
20260503030051 69 224 16.0 25.0 0.00 0.00 0.00 53 1013.6
20260503025536 69 185 17.0 25.0 0.00 0.00 0.00 52 1013.6
20260503025037 69 229 17.0 26.0 0.00 0.00 0.00 52 1013.5
20260503024554 70 222 17.0 26.0 0.00 0.00 0.00 52 1013.5
20260503024037 70 229 16.0 26.0 0.00 0.00 0.00 51 1013.5
20260503023536 70 228 15.0 26.0 0.00 0.00 0.00 51 1013.6
20260503023058 70 241 17.0 28.0 0.00 0.00 0.00 51 1013.5
20260503022536 70 236 16.0 30.0 0.00 0.00 0.00 52 1013.4
20260503022037 70 222 18.0 30.0 0.00 0.00 0.00 51 1013.5
20260503021551 70 241 18.0 31.0 0.00 0.00 0.00 51 1013.5
20260503021036 70 233 20.0 28.0 0.00 0.00 0.00 51 1013.5
20260503020536 70 218 20.0 30.0 0.00 0.00 0.00 50 1013.5
20260503020045 70 238 20.0 30.0 0.00 0.00 0.00 51 1013.5
20260503015539 70 224 16.0 30.0 0.00 0.00 0.00 51 1013.7
20260503015037 70 229 23.0 30.0 0.00 0.00 0.00 51 1013.7
20260503014548 70 232 21.0 30.0 0.00 0.00 0.00 50 1013.8
20260503014042 70 237 20.0 31.0 0.00 0.00 0.00 50 1013.8
20260503013541 70 220 18.0 31.0 0.00 0.00 0.00 49 1013.7
20260503013049 70 226 16.0 31.0 0.00 0.00 0.00 50 1013.8
20260503012537 70 219 21.0 31.0 0.00 0.00 0.00 50 1013.9
20260503012037 70 243 19.0 32.0 0.00 0.00 0.00 51 1013.9
20260503011601 70 233 22.0 32.0 0.00 0.00 0.00 49 1013.9
20260503011038 70 231 18.0 31.0 0.00 0.00 0.00 49 1014.0
20260503010536 70 256 20.0 31.0 0.00 0.00 0.00 50 1013.9
20260503010055 70 247 17.0 30.0 0.00 0.00 0.00 51 1014.0
20260503005543 70 233 19.0 30.0 0.00 0.00 0.00 52 1013.9
20260503005039 69 221 20.0 29.0 0.00 0.00 0.00 52 1014.0
20260503004546 69 234 19.0 28.0 0.00 0.00 0.00 54 1014.0
20260503004040 69 211 20.0 35.0 0.00 0.00 0.00 55 1014.0
20260503003541 69 241 21.0 35.0 0.00 0.00 0.00 55 1014.0
20260503003059 69 231 21.0 33.0 0.00 0.00 0.00 55 1014.1
20260503002540 69 199 19.0 33.0 0.00 0.00 0.00 53 1014.2
20260503002040 69 209 19.0 32.0 0.00 0.00 0.00 53 1014.1
20260503001546 69 235 18.0 26.0 0.00 0.00 0.00 54 1014.2
20260503001039 69 229 17.0 29.0 0.00 0.00 0.00 54 1014.4
20260503000540 69 246 18.0 29.0 0.00 0.00 0.00 54 1014.5
20260503000100 69 249 20.0 31.0 0.00 0.00 0.00 54 1014.5
20260502235537 68 204 19.0 31.0 0.00 0.00 0.00 56 1014.6
20260502235036 68 243 17.0 30.0 0.00 0.00 0.00 59 1014.7
20260502234546 67 243 21.0 30.0 0.00 0.00 0.00 59 1014.8
20260502234040 67 218 19.0 31.0 0.00 0.00 0.00 61 1014.9
20260502233536 67 229 20.0 31.0 0.00 0.00 0.00 62 1015.0
20260502233050 67 241 22.0 31.0 0.00 0.00 0.00 63 1015.1
20260502232536 67 236 21.0 33.0 0.00 0.00 0.00 62 1015.1
20260502232036 67 214 19.0 33.0 0.00 0.00 0.00 62 1015.1
20260502231549 67 220 19.0 29.0 0.00 0.00 0.00 61 1015.1
20260502231036 67 239 23.0 29.0 0.00 0.00 0.00 60 1015.2
20260502230539 67 239 21.0 29.0 0.00 0.00 0.00 60 1015.2
20260502230052 67 235 19.0 29.0 0.00 0.00 0.00 59 1015.3
20260502225539 68 246 21.0 29.0 0.00 0.00 0.00 58 1015.4
20260502225039 68 226 21.0 29.0 0.00 0.00 0.00 56 1015.4
20260502224554 67 245 18.0 29.0 0.00 0.00 0.00 59 1015.5
20260502224040 67 241 19.0 30.0 0.00 0.00 0.00 59 1015.6
20260502223538 67 222 22.0 30.0 0.00 0.00 0.00 61 1015.6
20260502223059 66 226 21.0 27.0 0.00 0.00 0.00 62 1015.7
20260502222538 67 233 16.0 25.0 0.00 0.00 0.00 63 1015.8
20260502222041 66 222 20.0 28.0 0.00 0.00 0.00 65 1015.9
20260502221548 66 233 20.0 28.0 0.00 0.00 0.00 65 1015.9
20260502221040 66 235 21.0 29.0 0.00 0.00 0.00 65 1015.9
20260502220538 65 230 19.0 29.0 0.00 0.00 0.00 67 1016.0
20260502220048 65 247 19.0 28.0 0.00 0.00 0.00 67 1016.1
20260502215538 64 246 19.0 26.0 0.00 0.00 0.00 68 1016.2
20260502215038 64 253 17.0 25.0 0.00 0.00 0.00 69 1016.4
20260502214544 64 245 17.0 25.0 0.00 0.00 0.00 70 1016.3
20260502214038 63 249 19.0 25.0 0.00 0.00 0.00 70 1016.4
20260502213538 63 238 18.0 24.0 0.00 0.00 0.00 72 1016.6
20260502213043 63 229 19.0 24.0 0.00 0.00 0.00 73 1016.7
20260502212538 62 241 15.0 24.0 0.00 0.00 0.00 73 1016.7
20260502212038 62 234 15.0 23.0 0.00 0.00 0.00 75 1016.8
20260502211551 61 232 15.0 23.0 0.00 0.00 0.00 74 1017.0
20260502211037 61 238 16.0 23.0 0.00 0.00 0.00 75 1017.0
20260502210537 61 233 15.0 23.0 0.00 0.00 0.00 78 1017.2
20260502210047 61 246 19.0 23.0 0.00 0.00 0.00 78 1017.1
20260502205537 60 242 17.0 24.0 0.00 0.00 0.00 80 1017.2
20260502205038 60 245 19.0 24.0 0.00 0.00 0.00 78 1017.2
20260502204548 61 223 17.0 23.0 0.00 0.00 0.00 78 1017.4
20260502204037 61 249 14.0 23.0 0.00 0.00 0.00 79 1017.4
20260502203538 60 237 18.0 23.0 0.00 0.00 0.00 79 1017.5
20260502203047 60 231 18.0 23.0 0.00 0.00 0.00 79 1017.6
20260502202538 60 237 16.0 21.0 0.00 0.00 0.00 79 1017.7
20260502202038 60 243 17.0 22.0 0.00 0.00 0.00 78 1017.7
20260502201544 61 233 17.0 22.0 0.00 0.00 0.00 79 1017.7
20260502201038 60 243 18.0 23.0 0.00 0.00 0.00 79 1017.7
20260502200538 61 247 18.0 23.0 0.00 0.00 0.00 77 1017.7
20260502200046 62 222 15.0 21.0 0.00 0.00 0.00 75 1017.8
20260502195537 62 243 12.0 21.0 0.00 0.00 0.00 75 1017.9
20260502195038 62 233 14.0 22.0 0.00 0.00 0.00 76 1018.0
20260502194546 61 229 15.0 22.0 0.00 0.00 0.00 77 1018.0
20260502194041 61 239 15.0 19.0 0.00 0.00 0.00 77 1018.0
20260502193539 61 225 14.0 19.0 0.00 0.00 0.00 77 1018.1
20260502193050 61 246 12.0 19.0 0.00 0.00 0.00 77 1018.0
20260502192537 61 231 13.0 19.0 0.00 0.00 0.00 78 1018.1
20260502192037 61 239 14.0 19.0 0.00 0.00 0.00 78 1018.1
20260502191557 61 244 11.0 19.0 0.00 0.00 0.00 77 1018.1